User: anonymous   Login
Location: *
(51.1248°S, 108.4023°W)
Time: 08:36:25
(UTC+00:00)
Language:

Cosmos 1125 Rocket - Orbit

View from above orbital plane
View from above orbital plane
View from above satellite
View from above satellite

Ground track
Ground track

The orbit data is extracted from the following two-line orbital elements,

1 11511U 79078B   21264.94338347  .00000066  00000-0  31252-4 0  9995
2 11511  74.0375 331.7351 0015871 199.3753 160.6799 14.36939484202068
Epoch (UTC): 21 September 2021 22:38:28
Eccentricity: 0.0015871
inclination: 74.0375°
perigee height: 757 km
apogee height: 780 km
right ascension of ascending node: 331.7351°
argument of perigee: 199.3753°
revolutions per day: 14.36939484
mean anomaly at epoch: 160.6799°
orbit number at epoch: 20206

The dashed part of the orbit path shows where the satellite is in the earth's shadow,  

DLR